owner,sensor,date,latitude,longitude,vertical_datum,sea_water_speed,direction_of_sea_water_velocity,upward_sea_water_velocity,qcFlag
Anadarko,ioos:station:wmo:42377:1,2022-07-01T00:01:00Z,27.2925,-90.9681,21.3,26.4,5.0,-9999.0,'111111111,111111111,999999991'
Anadarko,ioos:station:wmo:42377:1,2022-07-01T00:21:00Z,27.2925,-90.9681,21.3,25.8,5.1,-9999.0,'111111111,111111111,999999991'
Anadarko,ioos:station:wmo:42377:1,2022-07-01T00:41:00Z,27.2925,-90.9681,21.3,24.5,4.5,-9999.0,'111111111,111111111,999999991'
Anadarko,ioos:station:wmo:42377:1,2022-07-01T01:01:00Z,27.2925,-90.9681,21.3,21.5,4.3,-9999.0,'111111111,111111111,999999991'
Anadarko,ioos:station:wmo:42377:1,2022-07-01T01:21:00Z,27.2925,-90.9681,21.3,22.6,4.8,-9999.0,'111111111,111111111,999999991'
Anadarko,ioos:station:wmo:42377:1,2022-07-01T01:41:00Z,27.2925,-90.9681,21.3,20.8,1.7,-9999.0,'111111111,111111111,999999991'
Anadarko,ioos:station:wmo:42377:1,2022-07-01T02:01:00Z,27.2925,-90.9681,21.3,20.6,3.9,-9999.0,'111111111,111111111,999999991'
Anadarko,ioos:station:wmo:42377:1,2022-07-01T02:21:00Z,27.2925,-90.9681,21.3,20.6,0.0,-9999.0,'111111111,111441111,999999991'
Anadarko,ioos:station:wmo:42377:1,2022-07-01T02:41:00Z,27.2925,-90.9681,21.3,18.1,338.7,-9999.0,'111111111,111111111,999999991'
Anadarko,ioos:station:wmo:42377:1,2022-07-01T03:01:00Z,27.2925,-90.9681,21.3,19.0,338.4,-9999.0,'111111111,111111111,999999991'
Anadarko,ioos:station:wmo:42377:1,2022-07-01T03:21:00Z,27.2925,-90.9681,21.3,16.3,335.8,-9999.0,'111111111,111111111,999999991'
Anadarko,ioos:station:wmo:42377:1,2022-07-01T03:41:00Z,27.2925,-90.9681,21.3,17.8,341.0,-9999.0,'111111111,111111111,999999991'
Anadarko,ioos:station:wmo:42377:1,2022-07-01T04:01:00Z,27.2925,-90.9681,21.3,19.7,314.0,-9999.0,'111111111,111111111,999999991'
Anadarko,ioos:station:wmo:42377:1,2022-07-01T04:21:00Z,27.2925,-90.9681,21.3,21.0,330.6,-9999.0,'111111111,111111111,999999991'
Anadarko,ioos:station:wmo:42377:1,2022-07-01T04:41:00Z,27.2925,-90.9681,21.3,23.5,343.7,-9999.0,'111111111,111111111,999999991'
Anadarko,ioos:station:wmo:42377:1,2022-07-01T05:01:00Z,27.2925,-90.9681,21.3,20.8,344.4,-9999.0,'111111111,111111111,999999991'
Anadarko,ioos:station:wmo:42377:1,2022-07-01T05:21:00Z,27.2925,-90.9681,21.3,20.9,353.7,-9999.0,'111111111,111111111,999999991'
Anadarko,ioos:station:wmo:42377:1,2022-07-01T05:41:00Z,27.2925,-90.9681,21.3,20.0,350.5,-9999.0,'111111111,111111111,999999991'
Anadarko,ioos:station:wmo:42377:1,2022-07-01T06:01:00Z,27.2925,-90.9681,21.3,17.9,355.8,-9999.0,'111111111,111111111,999999991'
Anadarko,ioos:station:wmo:42377:1,2022-07-01T06:21:00Z,27.2925,-90.9681,21.3,17.7,7.4,-9999.0,'111111111,111111111,999999991'
Anadarko,ioos:station:wmo:42377:1,2022-07-01T06:41:00Z,27.2925,-90.9681,21.3,16.1,357.9,-9999.0,'111111111,111111111,999999991'
Anadarko,ioos:station:wmo:42377:1,2022-07-01T07:01:00Z,27.2925,-90.9681,21.3,16.1,1.4,-9999.0,'111111111,111111111,999999991'
Anadarko,ioos:station:wmo:42377:1,2022-07-01T07:21:00Z,27.2925,-90.9681,21.3,15.7,357.4,-9999.0,'111111111,111111111,999999991'
Anadarko,ioos:station:wmo:42377:1,2022-07-01T07:41:00Z,27.2925,-90.9681,21.3,17.2,353.0,-9999.0,'111111111,111111111,999999991'
Anadarko,ioos:station:wmo:42377:1,2022-07-01T08:01:00Z,27.2925,-90.9681,21.3,19.1,355.8,-9999.0,'111111111,111111111,999999991'
Anadarko,ioos:station:wmo:42377:1,2022-07-01T08:21:00Z,27.2925,-90.9681,21.3,18.4,348.1,-9999.0,'111111111,111111111,999999991'
Anadarko,ioos:station:wmo:42377:1,2022-07-01T08:41:00Z,27.2925,-90.9681,21.3,19.3,338.5,-9999.0,'111111111,111111111,999999991'
Anadarko,ioos:station:wmo:42377:1,2022-07-01T09:01:00Z,27.2925,-90.9681,21.3,20.0,340.8,-9999.0,'111111111,111111111,999999991'
Anadarko,ioos:station:wmo:42377:1,2022-07-01T09:21:00Z,27.2925,-90.9681,21.3,19.0,348.7,-9999.0,'111111111,111111111,999999991'
Anadarko,ioos:station:wmo:42377:1,2022-07-01T09:41:00Z,27.2925,-90.9681,21.3,19.5,340.8,-9999.0,'111111111,111111111,999999991'
Anadarko,ioos:station:wmo:42377:1,2022-07-01T10:01:00Z,27.2925,-90.9681,21.3,22.4,348.9,-9999.0,'111111111,111111111,999999991'
Anadarko,ioos:station:wmo:42377:1,2022-07-01T10:21:00Z,27.2925,-90.9681,21.3,22.9,347.9,-9999.0,'111111111,111111111,999999991'
Anadarko,ioos:station:wmo:42377:1,2022-07-01T10:41:00Z,27.2925,-90.9681,21.3,20.8,345.0,-9999.0,'111111111,111111111,999999991'
Anadarko,ioos:station:wmo:42377:1,2022-07-01T11:01:00Z,27.2925,-90.9681,21.3,22.3,10.1,-9999.0,'111111111,111111111,999999991'
Anadarko,ioos:station:wmo:42377:1,2022-07-01T11:21:00Z,27.2925,-90.9681,21.3,20.9,0.5,-9999.0,'111111111,111111111,999999991'
Anadarko,ioos:station:wmo:42377:1,2022-07-01T11:41:00Z,27.2925,-90.9681,21.3,20.7,6.4,-9999.0,'111111111,111111111,999999991'
Anadarko,ioos:station:wmo:42377:1,2022-07-01T12:01:00Z,27.2925,-90.9681,21.3,19.0,4.5,-9999.0,'111111111,111111111,999999991'
Anadarko,ioos:station:wmo:42377:1,2022-07-01T12:21:00Z,27.2925,-90.9681,21.3,20.3,18.3,-9999.0,'111111111,111111111,999999991'
Anadarko,ioos:station:wmo:42377:1,2022-07-01T12:41:00Z,27.2925,-90.9681,21.3,17.0,8.1,-9999.0,'111111111,111111111,999999991'
Anadarko,ioos:station:wmo:42377:1,2022-07-01T13:01:00Z,27.2925,-90.9681,21.3,17.5,9.5,-9999.0,'111111111,111111111,999999991'
Anadarko,ioos:station:wmo:42377:1,2022-07-01T13:21:00Z,27.2925,-90.9681,21.3,18.1,7.6,-9999.0,'111111111,111111111,999999991'
Anadarko,ioos:station:wmo:42377:1,2022-07-01T13:41:00Z,27.2925,-90.9681,21.3,20.3,11.6,-9999.0,'111111111,111111111,999999991'
Anadarko,ioos:station:wmo:42377:1,2022-07-01T14:01:00Z,27.2925,-90.9681,21.3,21.7,14.2,-9999.0,'111111111,111111111,999999991'
Anadarko,ioos:station:wmo:42377:1,2022-07-01T14:21:00Z,27.2925,-90.9681,21.3,23.7,20.5,-9999.0,'111111111,111111111,999999991'
Anadarko,ioos:station:wmo:42377:1,2022-07-01T14:41:00Z,27.2925,-90.9681,21.3,25.0,27.7,-9999.0,'111111111,111111111,999999991'
Anadarko,ioos:station:wmo:42377:1,2022-07-01T15:01:00Z,27.2925,-90.9681,21.3,28.9,32.4,-9999.0,'111111111,111111111,999999991'
Anadarko,ioos:station:wmo:42377:1,2022-07-01T15:21:00Z,27.2925,-90.9681,21.3,24.6,34.1,-9999.0,'111111111,111111111,999999991'
Anadarko,ioos:station:wmo:42377:1,2022-07-01T15:41:00Z,27.2925,-90.9681,21.3,25.7,39.1,-9999.0,'111111111,111111111,999999991'
Anadarko,ioos:station:wmo:42377:1,2022-07-01T16:01:00Z,27.2925,-90.9681,21.3,29.8,38.9,-9999.0,'111111111,111111111,999999991'
Anadarko,ioos:station:wmo:42377:1,2022-07-01T16:21:00Z,27.2925,-90.9681,21.3,33.3,47.8,-9999.0,'111111111,111111111,999999991'
Anadarko,ioos:station:wmo:42377:1,2022-07-01T16:41:00Z,27.2925,-90.9681,21.3,31.8,51.7,-9999.0,'111111111,111111111,999999991'
Anadarko,ioos:station:wmo:42377:1,2022-07-01T17:01:00Z,27.2925,-90.9681,21.3,29.4,55.0,-9999.0,'111111111,111111111,999999991'
Anadarko,ioos:station:wmo:42377:1,2022-07-01T17:21:00Z,27.2925,-90.9681,21.3,26.7,56.3,-9999.0,'111111111,111111111,999999991'
Anadarko,ioos:station:wmo:42377:1,2022-07-01T17:41:00Z,27.2925,-90.9681,21.3,27.0,50.4,-9999.0,'111111111,111111111,999999991'
Anadarko,ioos:station:wmo:42377:1,2022-07-01T18:01:00Z,27.2925,-90.9681,21.3,27.9,44.9,-9999.0,'111111111,111111111,999999991'
Anadarko,ioos:station:wmo:42377:1,2022-07-01T18:21:00Z,27.2925,-90.9681,21.3,24.4,39.8,-9999.0,'111111111,111111111,999999991'
Anadarko,ioos:station:wmo:42377:1,2022-07-01T18:41:00Z,27.2925,-90.9681,21.3,27.6,26.7,-9999.0,'111111111,111111111,999999991'
Anadarko,ioos:station:wmo:42377:1,2022-07-01T19:01:00Z,27.2925,-90.9681,21.3,26.4,16.0,-9999.0,'111111111,111111111,999999991'
Anadarko,ioos:station:wmo:42377:1,2022-07-01T19:21:00Z,27.2925,-90.9681,21.3,23.6,8.5,-9999.0,'111111111,111111111,999999991'
Anadarko,ioos:station:wmo:42377:1,2022-07-01T19:41:00Z,27.2925,-90.9681,21.3,23.3,1.0,-9999.0,'111111111,111111111,999999991'
Anadarko,ioos:station:wmo:42377:1,2022-07-01T20:01:00Z,27.2925,-90.9681,21.3,23.7,2.2,-9999.0,'111111111,111111111,999999991'
Anadarko,ioos:station:wmo:42377:1,2022-07-01T20:21:00Z,27.2925,-90.9681,21.3,26.5,4.8,-9999.0,'111111111,111111111,999999991'
Anadarko,ioos:station:wmo:42377:1,2022-07-01T20:41:00Z,27.2925,-90.9681,21.3,27.0,13.7,-9999.0,'111111111,111111111,999999991'
Anadarko,ioos:station:wmo:42377:1,2022-07-01T21:01:00Z,27.2925,-90.9681,21.3,25.4,5.6,-9999.0,'111111111,111111111,999999991'
Anadarko,ioos:station:wmo:42377:1,2022-07-01T21:21:00Z,27.2925,-90.9681,21.3,30.4,10.1,-9999.0,'111111111,111111111,999999991'
Anadarko,ioos:station:wmo:42377:1,2022-07-01T21:41:00Z,27.2925,-90.9681,21.3,32.3,10.3,-9999.0,'111111111,111111111,999999991'
Anadarko,ioos:station:wmo:42377:1,2022-07-01T22:01:00Z,27.2925,-90.9681,21.3,31.0,14.6,-9999.0,'111111111,111111111,999999991'
Anadarko,ioos:station:wmo:42377:1,2022-07-01T22:21:00Z,27.2925,-90.9681,21.3,29.1,17.0,-9999.0,'111111111,111111111,999999991'
Anadarko,ioos:station:wmo:42377:1,2022-07-01T22:41:00Z,27.2925,-90.9681,21.3,27.0,13.3,-9999.0,'111111111,111111111,999999991'
Anadarko,ioos:station:wmo:42377:1,2022-07-01T23:01:00Z,27.2925,-90.9681,21.3,27.0,7.0,-9999.0,'111111111,111111111,999999991'
Anadarko,ioos:station:wmo:42377:1,2022-07-01T23:21:00Z,27.2925,-90.9681,21.3,29.0,11.3,-9999.0,'111111111,111111111,999999991'
Anadarko,ioos:station:wmo:42377:1,2022-07-01T23:41:00Z,27.2925,-90.9681,21.3,29.8,17.6,-9999.0,'111111111,111111111,999999991'
Anadarko,ioos:station:wmo:42377:1,2022-07-02T00:01:00Z,27.2925,-90.9681,21.3,29.4,21.1,-9999.0,'111111111,111111111,999999991'
Anadarko,ioos:station:wmo:42377:1,2022-07-02T00:21:00Z,27.2925,-90.9681,21.3,28.8,22.5,-9999.0,'111111111,111111111,999999991'
Anadarko,ioos:station:wmo:42377:1,2022-07-02T00:41:00Z,27.2925,-90.9681,21.3,28.4,21.7,-9999.0,'111111111,111111111,999999991'
Anadarko,ioos:station:wmo:42377:1,2022-07-02T01:01:00Z,27.2925,-90.9681,21.3,32.7,33.8,-9999.0,'111111111,111111111,999999991'
Anadarko,ioos:station:wmo:42377:1,2022-07-02T01:21:00Z,27.2925,-90.9681,21.3,27.4,31.0,-9999.0,'111111111,111111111,999999991'
Anadarko,ioos:station:wmo:42377:1,2022-07-02T01:41:00Z,27.2925,-90.9681,21.3,25.3,30.9,-9999.0,'111111111,111111111,999999991'
Anadarko,ioos:station:wmo:42377:1,2022-07-02T02:01:00Z,27.2925,-90.9681,21.3,28.1,23.7,-9999.0,'111111111,111111111,999999991'
Anadarko,ioos:station:wmo:42377:1,2022-07-02T02:21:00Z,27.2925,-90.9681,21.3,26.6,25.4,-9999.0,'111111111,111111111,999999991'
Anadarko,ioos:station:wmo:42377:1,2022-07-02T02:41:00Z,27.2925,-90.9681,21.3,25.8,36.3,-9999.0,'111111111,111111111,999999991'
Anadarko,ioos:station:wmo:42377:1,2022-07-02T03:01:00Z,27.2925,-90.9681,21.3,26.2,36.0,-9999.0,'111111111,111111111,999999991'
Anadarko,ioos:station:wmo:42377:1,2022-07-02T03:21:00Z,27.2925,-90.9681,21.3,27.2,34.8,-9999.0,'111111111,111111111,999999991'
Anadarko,ioos:station:wmo:42377:1,2022-07-02T03:41:00Z,27.2925,-90.9681,21.3,22.7,30.4,-9999.0,'111111111,111111111,999999991'
Anadarko,ioos:station:wmo:42377:1,2022-07-02T04:01:00Z,27.2925,-90.9681,21.3,24.6,32.2,-9999.0,'111111111,111111111,999999991'
Anadarko,ioos:station:wmo:42377:1,2022-07-02T04:21:00Z,27.2925,-90.9681,21.3,26.0,36.6,-9999.0,'111111111,111111111,999999991'
Anadarko,ioos:station:wmo:42377:1,2022-07-02T04:41:00Z,27.2925,-90.9681,21.3,23.6,37.9,-9999.0,'111111111,111111111,999999991'
Anadarko,ioos:station:wmo:42377:1,2022-07-02T05:01:00Z,27.2925,-90.9681,21.3,22.8,40.4,-9999.0,'111111111,111111111,999999991'
Anadarko,ioos:station:wmo:42377:1,2022-07-02T05:20:00Z,27.2925,-90.9681,21.3,21.8,34.9,-9999.0,'111111111,111111111,999999991'
Anadarko,ioos:station:wmo:42377:1,2022-07-02T05:40:00Z,27.2925,-90.9681,21.3,21.5,31.1,-9999.0,'111111111,111111111,999999991'
Anadarko,ioos:station:wmo:42377:1,2022-07-02T06:00:00Z,27.2925,-90.9681,21.3,20.3,26.9,-9999.0,'111111111,111111111,999999991'
Anadarko,ioos:station:wmo:42377:1,2022-07-02T06:20:00Z,27.2925,-90.9681,21.3,18.0,20.9,-9999.0,'111111111,111111111,999999991'
Anadarko,ioos:station:wmo:42377:1,2022-07-02T06:40:00Z,27.2925,-90.9681,21.3,19.2,18.8,-9999.0,'111111111,111111111,999999991'
Anadarko,ioos:station:wmo:42377:1,2022-07-02T07:00:00Z,27.2925,-90.9681,21.3,18.0,17.8,-9999.0,'111111111,111111111,999999991'
Anadarko,ioos:station:wmo:42377:1,2022-07-02T07:20:00Z,27.2925,-90.9681,21.3,17.3,16.4,-9999.0,'111111111,111111111,999999991'
Anadarko,ioos:station:wmo:42377:1,2022-07-02T07:40:00Z,27.2925,-90.9681,21.3,16.6,30.4,-9999.0,'111111111,111111111,999999991'
Anadarko,ioos:station:wmo:42377:1,2022-07-02T08:00:00Z,27.2925,-90.9681,21.3,17.5,31.7,-9999.0,'111111111,111111111,999999991'
Anadarko,ioos:station:wmo:42377:1,2022-07-02T08:20:00Z,27.2925,-90.9681,21.3,14.0,32.4,-9999.0,'111111111,111111111,999999991'
Anadarko,ioos:station:wmo:42377:1,2022-07-02T08:40:00Z,27.2925,-90.9681,21.3,11.4,45.4,-9999.0,'111111111,111111111,999999991'
Anadarko,ioos:station:wmo:42377:1,2022-07-02T09:00:00Z,27.2925,-90.9681,21.3,13.6,45.0,-9999.0,'111111111,111111111,999999991'
Anadarko,ioos:station:wmo:42377:1,2022-07-02T09:20:00Z,27.2925,-90.9681,21.3,13.9,39.4,-9999.0,'111111111,111111111,999999991'
Anadarko,ioos:station:wmo:42377:1,2022-07-02T09:40:00Z,27.2925,-90.9681,21.3,11.8,33.3,-9999.0,'111111111,111111111,999999991'
Anadarko,ioos:station:wmo:42377:1,2022-07-02T10:00:00Z,27.2925,-90.9681,21.3,8.9,18.2,-9999.0,'111111111,111111111,999999991'
Anadarko,ioos:station:wmo:42377:1,2022-07-02T10:20:00Z,27.2925,-90.9681,21.3,11.7,32.5,-9999.0,'111111111,111111111,999999991'
Anadarko,ioos:station:wmo:42377:1,2022-07-02T10:40:00Z,27.2925,-90.9681,21.3,10.9,34.1,-9999.0,'111111111,111111111,999999991'
Anadarko,ioos:station:wmo:42377:1,2022-07-02T11:00:00Z,27.2925,-90.9681,21.3,12.7,47.5,-9999.0,'111111111,111111111,999999991'
Anadarko,ioos:station:wmo:42377:1,2022-07-02T11:20:00Z,27.2925,-90.9681,21.3,10.5,45.4,-9999.0,'111111111,111111111,999999991'
Anadarko,ioos:station:wmo:42377:1,2022-07-02T11:40:00Z,27.2925,-90.9681,21.3,12.6,36.0,-9999.0,'111111111,111111111,999999991'
Anadarko,ioos:station:wmo:42377:1,2022-07-02T12:00:00Z,27.2925,-90.9681,21.3,9.7,5.3,-9999.0,'111111111,111111111,999999991'
Anadarko,ioos:station:wmo:42377:1,2022-07-02T12:20:00Z,27.2925,-90.9681,21.3,9.5,2.4,-9999.0,'111111111,111111111,999999991'
Anadarko,ioos:station:wmo:42377:1,2022-07-02T12:40:00Z,27.2925,-90.9681,21.3,10.5,5.4,-9999.0,'111111111,111111111,999999991'
Anadarko,ioos:station:wmo:42377:1,2022-07-02T13:00:00Z,27.2925,-90.9681,21.3,10.8,11.2,-9999.0,'111111111,111111111,999999991'
Anadarko,ioos:station:wmo:42377:1,2022-07-02T13:20:00Z,27.2925,-90.9681,21.3,9.8,26.6,-9999.0,'111111111,111111111,999999991'
Anadarko,ioos:station:wmo:42377:1,2022-07-02T13:40:00Z,27.2925,-90.9681,21.3,11.1,39.1,-9999.0,'111111111,111111111,999999991'
Anadarko,ioos:station:wmo:42377:1,2022-07-02T14:00:00Z,27.2925,-90.9681,21.3,10.8,39.7,-9999.0,'111111111,111111111,999999991'
Anadarko,ioos:station:wmo:42377:1,2022-07-02T14:20:00Z,27.2925,-90.9681,21.3,9.3,34.5,-9999.0,'111111111,111111111,999999991'
Anadarko,ioos:station:wmo:42377:1,2022-07-02T14:40:00Z,27.2925,-90.9681,21.3,12.0,16.5,-9999.0,'111111111,111111111,999999991'
Anadarko,ioos:station:wmo:42377:1,2022-07-02T15:00:00Z,27.2925,-90.9681,21.3,13.2,22.7,-9999.0,'111111111,111111111,999999991'
Anadarko,ioos:station:wmo:42377:1,2022-07-02T15:20:00Z,27.2925,-90.9681,21.3,8.3,44.0,-9999.0,'111111111,111111111,999999991'
Anadarko,ioos:station:wmo:42377:1,2022-07-02T15:40:00Z,27.2925,-90.9681,21.3,9.7,22.3,-9999.0,'111111111,111111111,999999991'
Anadarko,ioos:station:wmo:42377:1,2022-07-02T16:00:00Z,27.2925,-90.9681,21.3,9.7,23.1,-9999.0,'111111111,111111111,999999991'
Anadarko,ioos:station:wmo:42377:1,2022-07-02T16:20:00Z,27.2925,-90.9681,21.3,9.6,17.7,-9999.0,'111111111,111111111,999999991'
Anadarko,ioos:station:wmo:42377:1,2022-07-02T16:40:00Z,27.2925,-90.9681,21.3,9.5,19.0,-9999.0,'111111111,111111111,999999991'
Anadarko,ioos:station:wmo:42377:1,2022-07-02T17:00:00Z,27.2925,-90.9681,21.3,9.7,25.8,-9999.0,'111111111,111111111,999999991'
Anadarko,ioos:station:wmo:42377:1,2022-07-02T17:20:00Z,27.2925,-90.9681,21.3,9.6,30.0,-9999.0,'111111111,111111111,999999991'
Anadarko,ioos:station:wmo:42377:1,2022-07-02T17:40:00Z,27.2925,-90.9681,21.3,8.3,15.4,-9999.0,'111111111,111111111,999999991'
Anadarko,ioos:station:wmo:42377:1,2022-07-02T18:00:00Z,27.2925,-90.9681,21.3,8.3,19.7,-9999.0,'111111111,111111111,999999991'
Anadarko,ioos:station:wmo:42377:1,2022-07-02T18:20:00Z,27.2925,-90.9681,21.3,8.9,14.3,-9999.0,'111111111,111111111,999999991'
Anadarko,ioos:station:wmo:42377:1,2022-07-02T18:40:00Z,27.2925,-90.9681,21.3,11.0,3.6,-9999.0,'111111111,111111111,999999991'
Anadarko,ioos:station:wmo:42377:1,2022-07-02T19:00:00Z,27.2925,-90.9681,21.3,12.5,5.0,-9999.0,'111111111,111111111,999999991'
Anadarko,ioos:station:wmo:42377:1,2022-07-02T19:20:00Z,27.2925,-90.9681,21.3,10.6,342.4,-9999.0,'111111111,111111111,999999991'
Anadarko,ioos:station:wmo:42377:1,2022-07-02T19:40:00Z,27.2925,-90.9681,21.3,10.3,329.7,-9999.0,'111111111,111111111,999999991'
Anadarko,ioos:station:wmo:42377:1,2022-07-02T20:00:00Z,27.2925,-90.9681,21.3,11.7,332.6,-9999.0,'111111111,111111111,999999991'
Anadarko,ioos:station:wmo:42377:1,2022-07-02T20:20:00Z,27.2925,-90.9681,21.3,10.0,341.4,-9999.0,'111111111,111111111,999999991'
Anadarko,ioos:station:wmo:42377:1,2022-07-02T20:40:00Z,27.2925,-90.9681,21.3,9.6,357.0,-9999.0,'111111111,111111111,999999991'
Anadarko,ioos:station:wmo:42377:1,2022-07-02T21:00:00Z,27.2925,-90.9681,21.3,12.5,1.8,-9999.0,'111111111,111111111,999999991'
Anadarko,ioos:station:wmo:42377:1,2022-07-02T21:20:00Z,27.2925,-90.9681,21.3,9.8,346.4,-9999.0,'111111111,111111111,999999991'
Anadarko,ioos:station:wmo:42377:1,2022-07-02T21:40:00Z,27.2925,-90.9681,21.3,12.7,0.9,-9999.0,'111111111,111111111,999999991'
Anadarko,ioos:station:wmo:42377:1,2022-07-02T22:00:00Z,27.2925,-90.9681,21.3,15.3,6.4,-9999.0,'111111111,111111111,999999991'
Anadarko,ioos:station:wmo:42377:1,2022-07-02T22:20:00Z,27.2925,-90.9681,21.3,12.4,6.5,-9999.0,'111111111,111111111,999999991'
Anadarko,ioos:station:wmo:42377:1,2022-07-02T22:40:00Z,27.2925,-90.9681,21.3,15.3,354.0,-9999.0,'111111111,111111111,999999991'
Anadarko,ioos:station:wmo:42377:1,2022-07-02T23:00:00Z,27.2925,-90.9681,21.3,22.2,13.0,-9999.0,'111111111,111111111,999999991'
Anadarko,ioos:station:wmo:42377:1,2022-07-02T23:20:00Z,27.2925,-90.9681,21.3,19.5,7.1,-9999.0,'111111111,111111111,999999991'
Anadarko,ioos:station:wmo:42377:1,2022-07-02T23:40:00Z,27.2925,-90.9681,21.3,21.2,11.2,-9999.0,'111111111,111111111,999999991'
Anadarko,ioos:station:wmo:42377:1,2022-07-03T00:00:00Z,27.2925,-90.9681,21.3,22.2,15.2,-9999.0,'111111111,111111111,999999991'
Anadarko,ioos:station:wmo:42377:1,2022-07-03T00:20:00Z,27.2925,-90.9681,21.3,22.5,21.1,-9999.0,'111111111,111111111,999999991'
Anadarko,ioos:station:wmo:42377:1,2022-07-03T00:40:00Z,27.2925,-90.9681,21.3,23.4,20.2,-9999.0,'111111111,111111111,999999991'
Anadarko,ioos:station:wmo:42377:1,2022-07-03T01:00:00Z,27.2925,-90.9681,21.3,26.2,21.0,-9999.0,'111111111,111111111,999999991'
Anadarko,ioos:station:wmo:42377:1,2022-07-03T01:20:00Z,27.2925,-90.9681,21.3,29.7,18.1,-9999.0,'111111111,111111111,999999991'
Anadarko,ioos:station:wmo:42377:1,2022-07-03T01:40:00Z,27.2925,-90.9681,21.3,31.0,20.2,-9999.0,'111111111,111111111,999999991'
Anadarko,ioos:station:wmo:42377:1,2022-07-03T02:00:00Z,27.2925,-90.9681,21.3,30.4,23.4,-9999.0,'111111111,111111111,999999991'
Anadarko,ioos:station:wmo:42377:1,2022-07-03T02:20:00Z,27.2925,-90.9681,21.3,26.9,20.9,-9999.0,'111111111,111111111,999999991'
Anadarko,ioos:station:wmo:42377:1,2022-07-03T02:40:00Z,27.2925,-90.9681,21.3,27.1,17.8,-9999.0,'111111111,111111111,999999991'
Anadarko,ioos:station:wmo:42377:1,2022-07-03T03:00:00Z,27.2925,-90.9681,21.3,24.8,12.6,-9999.0,'111111111,111111111,999999991'
Anadarko,ioos:station:wmo:42377:1,2022-07-03T03:20:00Z,27.2925,-90.9681,21.3,26.6,21.6,-9999.0,'111111111,111111111,999999991'
Anadarko,ioos:station:wmo:42377:1,2022-07-03T03:40:00Z,27.2925,-90.9681,21.3,26.8,25.9,-9999.0,'111111111,111111111,999999991'
Anadarko,ioos:station:wmo:42377:1,2022-07-03T04:00:00Z,27.2925,-90.9681,21.3,26.9,27.2,-9999.0,'111111111,111111111,999999991'
Anadarko,ioos:station:wmo:42377:1,2022-07-03T04:20:00Z,27.2925,-90.9681,21.3,28.3,28.9,-9999.0,'111111111,111111111,999999991'
Anadarko,ioos:station:wmo:42377:1,2022-07-03T04:40:00Z,27.2925,-90.9681,21.3,26.0,29.5,-9999.0,'111111111,111111111,999999991'
Anadarko,ioos:station:wmo:42377:1,2022-07-03T05:00:00Z,27.2925,-90.9681,21.3,25.9,28.8,-9999.0,'111111111,111111111,999999991'
Anadarko,ioos:station:wmo:42377:1,2022-07-03T05:20:00Z,27.2925,-90.9681,21.3,26.6,30.0,-9999.0,'111111111,111111111,999999991'
Anadarko,ioos:station:wmo:42377:1,2022-07-03T05:40:00Z,27.2925,-90.9681,21.3,23.9,26.9,-9999.0,'111111111,111111111,999999991'
Anadarko,ioos:station:wmo:42377:1,2022-07-03T06:00:00Z,27.2925,-90.9681,21.3,25.5,26.6,-9999.0,'111111111,111111111,999999991'
Anadarko,ioos:station:wmo:42377:1,2022-07-03T06:20:00Z,27.2925,-90.9681,21.3,26.6,34.3,-9999.0,'111111111,111111111,999999991'
Anadarko,ioos:station:wmo:42377:1,2022-07-03T06:40:00Z,27.2925,-90.9681,21.3,24.7,33.6,-9999.0,'111111111,111111111,999999991'
Anadarko,ioos:station:wmo:42377:1,2022-07-03T07:00:00Z,27.2925,-90.9681,21.3,24.3,37.3,-9999.0,'111111111,111111111,999999991'
Anadarko,ioos:station:wmo:42377:1,2022-07-03T07:20:00Z,27.2925,-90.9681,21.3,21.8,32.8,-9999.0,'111111111,111111111,999999991'
Anadarko,ioos:station:wmo:42377:1,2022-07-03T07:40:00Z,27.2925,-90.9681,21.3,17.7,27.3,-9999.0,'111111111,111111111,999999991'
Anadarko,ioos:station:wmo:42377:1,2022-07-03T08:00:00Z,27.2925,-90.9681,21.3,15.7,29.0,-9999.0,'111111111,111111111,999999991'
Anadarko,ioos:station:wmo:42377:1,2022-07-03T08:20:00Z,27.2925,-90.9681,21.3,17.1,41.4,-9999.0,'111111111,111111111,999999991'
Anadarko,ioos:station:wmo:42377:1,2022-07-03T08:40:00Z,27.2925,-90.9681,21.3,21.4,43.9,-9999.0,'111111111,111111111,999999991'
Anadarko,ioos:station:wmo:42377:1,2022-07-03T09:00:00Z,27.2925,-90.9681,21.3,20.2,42.6,-9999.0,'111111111,111111111,999999991'
Anadarko,ioos:station:wmo:42377:1,2022-07-03T09:20:00Z,27.2925,-90.9681,21.3,21.2,46.9,-9999.0,'111111111,111111111,999999991'
Anadarko,ioos:station:wmo:42377:1,2022-07-03T09:40:00Z,27.2925,-90.9681,21.3,27.4,46.9,-9999.0,'111111111,111111111,999999991'
Anadarko,ioos:station:wmo:42377:1,2022-07-03T10:00:00Z,27.2925,-90.9681,21.3,22.8,43.8,-9999.0,'111111111,111111111,999999991'
Anadarko,ioos:station:wmo:42377:1,2022-07-03T10:20:00Z,27.2925,-90.9681,21.3,22.1,45.2,-9999.0,'111111111,111111111,999999991'
Anadarko,ioos:station:wmo:42377:1,2022-07-03T10:40:00Z,27.2925,-90.9681,21.3,17.8,41.8,-9999.0,'111111111,111111111,999999991'
Anadarko,ioos:station:wmo:42377:1,2022-07-03T11:00:00Z,27.2925,-90.9681,21.3,14.3,45.0,-9999.0,'111111111,111111111,999999991'
Anadarko,ioos:station:wmo:42377:1,2022-07-03T11:20:00Z,27.2925,-90.9681,21.3,12.7,48.5,-9999.0,'111111111,111111111,999999991'
Anadarko,ioos:station:wmo:42377:1,2022-07-03T11:40:00Z,27.2925,-90.9681,21.3,16.1,39.4,-9999.0,'111111111,111111111,999999991'
Anadarko,ioos:station:wmo:42377:1,2022-07-03T12:00:00Z,27.2925,-90.9681,21.3,14.4,24.6,-9999.0,'111111111,111111111,999999991'
Anadarko,ioos:station:wmo:42377:1,2022-07-03T12:20:00Z,27.2925,-90.9681,21.3,15.0,17.8,-9999.0,'111111111,111111111,999999991'
Anadarko,ioos:station:wmo:42377:1,2022-07-03T12:40:00Z,27.2925,-90.9681,21.3,13.7,7.5,-9999.0,'111111111,111111111,999999991'
Anadarko,ioos:station:wmo:42377:1,2022-07-03T13:00:00Z,27.2925,-90.9681,21.3,14.3,358.4,-9999.0,'111111111,111111111,999999991'
Anadarko,ioos:station:wmo:42377:1,2022-07-03T13:20:00Z,27.2925,-90.9681,21.3,16.1,346.3,-9999.0,'111111111,111111111,999999991'
Anadarko,ioos:station:wmo:42377:1,2022-07-03T13:40:00Z,27.2925,-90.9681,21.3,17.4,357.7,-9999.0,'111111111,111111111,999999991'